Starlink 11190

operational
NORAD ID: 60911 Int'l Des: 2024-154 Owner: SPXS Country: US Constellation: starlink
LEOCIRCULAR

About Starlink 11190

Description loading...

Live Position

Loading 3D Globe...

Upcoming Passes

Altitude History

Altitude vs Time

uPlot chart will show altitude changes over time

Two-Line Element Set

1 60911U 24154J 26101.85891150 -.00002812 00000-0 -18350-4 0 9996
2 60911 53.1581 327.7747 0000837 93.7201 266.3913 15.69724127 93713
Epoch: Apr 11, 2026 • Age: 9 hours

Current Status

Altitude 377.6 km
Velocity 7.68 km/s
Sub-Earth Point -50.29°S, 70.61°W
Launch Date Aug 31, 2024
Age 1.6 years
Type internet

Technical Details

Classification Payload
Mass 960.00 kg
Dry Mass 910.00 kg
Total Mass 960.00 kg
Length 0.30 m
Diameter 4.10 m
Span 29.00 m
Shape Box + pan
Manufacturer SPXS
Bus Type Starlink V2MD
Phase Status In Orbit
Owner/State SPXS/US

Large Constellations

Loading constellations...